Weather in Staroye Ibraykino

Russia / Republic of Tatarstan     54°51′37″N   51°01′47″E
temp.,
°C
wind,
m/s
gust,
m/s
humid.,
%
clouds,
%
prec.,
mm/h
press.,
hPa
HPBL,
m
16 september, thu
thu1600:00+5w37775 0.0 1008173
03:00+4w39819 0.0 1008197
06:00+6w497194 0.0 1008377
09:00+9nw795598 0.0 10081514
12:00+8nw6857100 0.0 10101361
15:00+8nw6858100 0.0 10111481
18:00+7nw4868100 0.0 1011669
21:00+7nw5978100 0.1 1011647
17 september, fri
fri1700:00+7nw5982100 0.1 1012638
03:00+6nw5983100 0.1 1013523
06:00+6nw51083100 0.1 1013646
09:00+8nw6758100 0.1 10141162
12:00+9nw5651100 0.1 10141643
15:00+9nw5651100 0.2 10151467
18:00+7nw366276 0.1 1015174
21:00+4wnw367017 0.1 101594
18 september, sat
sat1800:00+3wnw357482 0.0 101680
03:00+4nw4982100 0.2 1016400
06:00+3nw389341 0.1 1017347
09:00+6nw6777100 0.1 1018789
12:00+7nnw5672100 0.2 1019987
15:00+8nnw576478 0.4 10201283
18:00+6nnw486097 0.0 1021557
21:00+6nw3757100 0.0 1022367
19 september, sun
sun1900:00+5nw4862100 0.0 1022411
03:00+1nw49875 0.1 1023274
06:000nw39855 0.0 1024267
09:00+6nnw56565 0.0 1025914
12:00+9nw564541 0.0 10251353
15:00+10nw56425 0.0 10251449
18:00+6nw225758 0.0 102517
21:00+4n226511 0.0 102612
20 september, mon
mon2000:00+3nne227068 0.0 102826
03:00+2ene3577100 0.0 102890
06:00+1ene367964 0.0 1029158
09:00+6e4457100 0.0 1029559
12:00+9e3349100 0.0 1029967
15:00+9e3353100 0.0 10281010
18:00+7ene3559100 0.0 1028117
21:00+6e4859100 0.0 1028234